QPF
0.01 0.01 0.01 0.00 0.00 0.00 0.00 0.00 0.00 0.00 0.00 0.00 0.00 0.00 0.00 0.00 0.00 0.00 0.00 0.00 0.00 0.00 0.00 0.00 0.00 0.00 0.00 0.00 0.00 0.00 0.00 0.00 0.00 0.00 0.00 0.00 0.00 0.00 0.00 0.00 0.00 0.00 0.00 0.00
0.01 0.01 0.00 0.00 0.00 0.00 0.00 0.00 0.00 0.00 0.00 0.00 0.00 0.00 0.00 0.00 0.00 0.00 0.00 0.00 0.00 0.00 0.00 0.00 0.00 0.00 0.00 0.00 0.00 0.00 0.00 0.00 0.00 0.00 0.00 0.00 0.00 0.00 0.00 0.00 0.00 0.00 0.00 0.00
0.01 0.00 0.00 0.00 0.00 0.00 0.00 0.00 0.00 0.00 0.00 0.00 0.00 0.00 0.00 0.00 0.00 0.00 0.00 0.00 0.00 0.00 0.00 0.00 0.00 0.00 0.00 0.00 0.00 0.00 0.00 0.00 0.00 0.00 0.00 0.01 0.00 0.00 0.00 0.00 0.00 0.00 0.00 0.00
0.01 0.00 0.00 0.01 0.00 0.00 0.00 0.00 0.00 0.00 0.00 0.00 0.00 0.00 0.00 0.00 0.00 0.00 0.00 0.00 0.00 0.00 0.00 0.00 0.00 0.00 0.00 0.00 0.00 0.00 0.00 0.00 0.00 0.00 0.01 0.01 0.00 0.00 0.00 0.00 0.00 0.00 0.00 0.00
0.01 0.00 0.00 0.01 0.01 0.00 0.00 0.00 0.00 0.00 0.00 0.00 0.00 0.00 0.00 0.00 0.00 0.00 0.00 0.00 0.00 0.00 0.00 0.00 0.00 0.00 0.00 0.00 0.00 0.00 0.00 0.00 0.00 0.00 0.01 0.01 0.01 0.00 0.00 0.00 0.00 0.00 0.00 0.00
0.01 0.00 0.01 0.01 0.00 0.01 0.01 0.01 0.00 0.00 0.01 0.01 0.00 0.00 0.00 0.00 0.00 0.00 0.00 0.00 0.00 0.00 0.00 0.00 0.00 0.00 0.00 0.00 0.00 0.00 0.00 0.00 0.00 0.00 0.01 0.01 0.01 0.01 0.01 0.00 0.00 0.00 0.00 0.00
0.01 0.01 0.00 0.00 0.01 0.01 0.01 0.02 0.03 0.03 0.03 0.01 0.00 0.00 0.00 0.00 0.00 0.00 0.00 0.00 0.00 0.00 0.00 0.00 0.00 0.00 0.00 0.00 0.00 0.00 0.00 0.00 0.00 0.00 0.01 0.01 0.01 0.01 0.01 0.00 0.00 0.00 0.00 0.00
0.02 0.01 0.01 0.00 0.01 0.01 0.01 0.02 0.02 0.02 0.01 0.00 0.00 0.00 0.00 0.00 0.00 0.00 0.00 0.00 0.00 0.00 0.00 0.00 0.00 0.00 0.00 0.00 0.00 0.00 0.00 0.00 0.00 0.00 0.00 0.01 0.01 0.01 0.01 0.00 0.00 0.00 0.00 0.00
0.04 0.02 0.00 0.00 0.00 0.01 0.01 0.02 0.01 0.02 0.01 0.00 0.00 0.00 0.00 0.00 0.00 0.00 0.00 0.00 0.00 0.00 0.00 0.00 0.00 0.00 0.00 0.00 0.00 0.00 0.00 0.00 0.00 0.00 0.00 0.01 0.02 0.01 0.01 0.00 0.01 0.00 0.00 0.00
0.04 0.02 0.01 0.00 0.01 0.01 0.01 0.01 0.02 0.02 0.02 0.01 0.00 0.00 0.00 0.00 0.00 0.00 0.00 0.00 0.00 0.00 0.00 0.00 0.00 0.00 0.00 0.00 0.00 0.00 0.00 0.00 0.00 0.00 0.01 0.02 0.03 0.02 0.02 0.01 0.01 0.00 0.00 0.00
0.04 0.03 0.02 0.01 0.02 0.02 0.01 0.02 0.03 0.02 0.01 0.01 0.00 0.00 0.00 0.00 0.00 0.00 0.00 0.00 0.00 0.00 0.00 0.00 0.00 0.00 0.00 0.00 0.00 0.00 0.00 0.00 0.00 0.00 0.01 0.02 0.03 0.03 0.03 0.01 0.01 0.01 0.00 0.00
0.04 0.04 0.03 0.02 0.02 0.02 0.02 0.02 0.02 0.02 0.01 0.00 0.00 0.00 0.00 0.00 0.00 0.00 0.00 0.00 0.00 0.00 0.00 0.00 0.00 0.00 0.00 0.00 0.00 0.00 0.00 0.00 0.00 0.00 0.02 0.03 0.03 0.03 0.03 0.02 0.01 0.01 0.01 0.00
0.05 0.06 0.04 0.03 0.03 0.04 0.05 0.03 0.02 0.02 0.02 0.01 0.01 0.00 0.00 0.00 0.00 0.00 0.00 0.00 0.00 0.00 0.00 0.00 0.00 0.00 0.00 0.00 0.00 0.00 0.00 0.00 0.00 0.01 0.02 0.03 0.03 0.02 0.02 0.02 0.01 0.01 0.01 0.00
0.07 0.08 0.05 0.04 0.04 0.04 0.05 0.03 0.02 0.03 0.03 0.02 0.01 0.01 0.00 0.00 0.00 0.00 0.00 0.00 0.00 0.00 0.00 0.00 0.00 0.00 0.00 0.00 0.00 0.00 0.00 0.00 0.00 0.01 0.01 0.02 0.02 0.02 0.01 0.02 0.02 0.01 0.01 0.00
0.04 0.06 0.04 0.03 0.01 0.02 0.02 0.02 0.02 0.02 0.02 0.02 0.02 0.01 0.01 0.00 0.00 0.00 0.00 0.00 0.00 0.00 0.00 0.00 0.00 0.00 0.00 0.00 0.00 0.00 0.00 0.00 0.00 0.01 0.01 0.02 0.02 0.01 0.01 0.01 0.01 0.01 0.01 0.01
0.04 0.04 0.03 0.02 0.01 0.01 0.01 0.01 0.02 0.02 0.01 0.02 0.02 0.02 0.01 0.00 0.00 0.00 0.00 0.00 0.00 0.00 0.00 0.00 0.00 0.00 0.00 0.00 0.00 0.00 0.00 0.00 0.00 0.01 0.01 0.01 0.02 0.01 0.01 0.01 0.00 0.00 0.01 0.01
0.04 0.05 0.04 0.03 0.02 0.02 0.03 0.02 0.02 0.02 0.02 0.01 0.01 0.03 0.03 0.01 0.01 0.00 0.00 0.00 0.00 0.00 0.00 0.00 0.00 0.00 0.00 0.00 0.00 0.00 0.00 0.00 0.00 0.01 0.01 0.00 0.01 0.01 0.01 0.01 0.00 0.00 0.01 0.01
0.03 0.05 0.05 0.03 0.03 0.05 0.05 0.03 0.02 0.03 0.03 0.02 0.01 0.02 0.03 0.02 0.01 0.01 0.01 0.00 0.00 0.00 0.00 0.00 0.00 0.00 0.00 0.00 0.00 0.00 0.00 0.00 0.00 0.01 0.00 0.00 0.00 0.00 0.00 0.00 0.00 0.00 0.00 0.00
0.02 0.04 0.05 0.04 0.05 0.04 0.03 0.02 0.03 0.03 0.04 0.03 0.02 0.02 0.02 0.02 0.01 0.01 0.00 0.00 0.00 0.00 0.00 0.00 0.00 0.00 0.00 0.00 0.00 0.00 0.00 0.00 0.00 0.00 0.00 0.00 0.00 0.00 0.00 0.00 0.00 0.00 0.00 0.00
0.03 0.04 0.05 0.04 0.04 0.04 0.03 0.02 0.02 0.03 0.04 0.03 0.02 0.02 0.02 0.02 0.02 0.01 0.00 0.00 0.00 0.00 0.00 0.00 0.00 0.00 0.00 0.00 0.00 0.00 0.00 0.00 0.00 0.00 0.00 0.00 0.00 0.00 0.00 0.00 0.00 0.00 0.00 0.00
0.05 0.07 0.07 0.04 0.04 0.03 0.02 0.02 0.02 0.04 0.05 0.03 0.02 0.02 0.02 0.02 0.02 0.01 0.00 0.00 0.00 0.00 0.00 0.00 0.00 0.00 0.00 0.00 0.00 0.00 0.00 0.00 0.00 0.00 0.00 0.00 0.00 0.00 0.00 0.00 0.00 0.00 0.00 0.00
0.06 0.06 0.07 0.06 0.06 0.05 0.03 0.02 0.04 0.04 0.03 0.02 0.02 0.02 0.02 0.02 0.01 0.01 0.00 0.00 0.00 0.00 0.00 0.00 0.00 0.00 0.00 0.00 0.00 0.00 0.00 0.00 0.00 0.00 0.00 0.00 0.00 0.00 0.00 0.00 0.00 0.00 0.01 0.01
0.06 0.08 0.08 0.08 0.08 0.07 0.04 0.04 0.03 0.02 0.01 0.02 0.02 0.01 0.01 0.01 0.01 0.01 0.00 0.00 0.00 0.00 0.00 0.00 0.00 0.00 0.00 0.00 0.00 0.00 0.00 0.00 0.00 0.00 0.00 0.00 0.00 0.00 0.00 0.00 0.00 0.00 0.01 0.01
0.03 0.04 0.05 0.05 0.06 0.05 0.04 0.03 0.02 0.01 0.01 0.01 0.01 0.01 0.01 0.01 0.01 0.01 0.00 0.00 0.00 0.00 0.00 0.00 0.00 0.00 0.00 0.00 0.00 0.00 0.00 0.00 0.00 0.00 0.00 0.00 0.00 0.00 0.00 0.00 0.01 0.01 0.01 0.01
0.03 0.03 0.03 0.04 0.04 0.04 0.03 0.03 0.03 0.02 0.01 0.01 0.01 0.01 0.01 0.01 0.01 0.01 0.01 0.01 0.00 0.00 0.00 0.00 0.00 0.00 0.00 0.00 0.00 0.00 0.00 0.00 0.00 0.00 0.00 0.00 0.00 0.00 0.00 0.01 0.01 0.01 0.02 0.02
0.03 0.03 0.04 0.04 0.04 0.04 0.04 0.03 0.02 0.02 0.01 0.01 0.00 0.00 0.00 0.00 0.01 0.01 0.01 0.00 0.00 0.00 0.00 0.00 0.00 0.00 0.00 0.00 0.00 0.00 0.00 0.00 0.00 0.00 0.00 0.00 0.00 0.00 0.01 0.01 0.01 0.01 0.02 0.03
MSLP
1014.04 1014.41 1014.75 1015.08 1015.42 1015.79 1016.21 1016.67 1017.18 1017.70 1018.20 1018.66 1019.06 1019.39 1019.65 1019.85 1020.03 1020.21 1020.39 1020.60 1020.83 1021.08 1021.33 1021.57 1021.80 1022.00 1022.18 1022.34 1022.47 1022.59 1022.67 1022.70 1022.68 1022.58 1022.40 1022.12 1021.76 1021.32 1020.83 1020.30 1019.78 1019.27 1018.79 1018.35
1014.07 1014.34 1014.59 1014.85 1015.15 1015.52 1015.99 1016.53 1017.12 1017.73 1018.31 1018.82 1019.23 1019.53 1019.74 1019.88 1019.99 1020.11 1020.27 1020.48 1020.73 1021.03 1021.33 1021.64 1021.91 1022.15 1022.35 1022.52 1022.65 1022.75 1022.83 1022.86 1022.83 1022.73 1022.54 1022.25 1021.87 1021.41 1020.89 1020.34 1019.79 1019.26 1018.76 1018.31
1014.09 1014.27 1014.43 1014.63 1014.90 1015.27 1015.77 1016.38 1017.04 1017.71 1018.33 1018.85 1019.24 1019.50 1019.64 1019.71 1019.77 1019.86 1020.01 1020.23 1020.54 1020.90 1021.28 1021.66 1021.99 1022.28 1022.50 1022.67 1022.80 1022.90 1022.96 1022.98 1022.95 1022.85 1022.66 1022.37 1021.99 1021.52 1020.98 1020.42 1019.84 1019.29 1018.78 1018.31
1014.18 1014.27 1014.36 1014.50 1014.75 1015.14 1015.66 1016.30 1017.00 1017.69 1018.30 1018.79 1019.11 1019.29 1019.35 1019.36 1019.36 1019.43 1019.60 1019.88 1020.26 1020.72 1021.20 1021.66 1022.06 1022.39 1022.64 1022.82 1022.94 1023.02 1023.06 1023.07 1023.03 1022.93 1022.75 1022.47 1022.10 1021.63 1021.10 1020.52 1019.94 1019.38 1018.84 1018.35
1014.33 1014.37 1014.42 1014.54 1014.78 1015.17 1015.71 1016.36 1017.04 1017.70 1018.24 1018.64 1018.86 1018.93 1018.89 1018.82 1018.79 1018.86 1019.08 1019.44 1019.93 1020.50 1021.10 1021.66 1022.14 1022.52 1022.79 1022.97 1023.07 1023.13 1023.15 1023.14 1023.09 1022.99 1022.82 1022.56 1022.20 1021.75 1021.23 1020.66 1020.07 1019.50 1018.94 1018.42
1014.53 1014.56 1014.60 1014.73 1014.98 1015.38 1015.92 1016.54 1017.18 1017.75 1018.18 1018.43 1018.51 1018.44 1018.29 1018.15 1018.10 1018.20 1018.49 1018.96 1019.58 1020.29 1021.01 1021.67 1022.23 1022.66 1022.95 1023.12 1023.20 1023.23 1023.22 1023.19 1023.14 1023.04 1022.89 1022.65 1022.31 1021.89 1021.39 1020.83 1020.24 1019.65 1019.06 1018.50
1014.72 1014.78 1014.86 1015.02 1015.31 1015.73 1016.26 1016.83 1017.38 1017.82 1018.10 1018.18 1018.09 1017.88 1017.62 1017.42 1017.36 1017.51 1017.89 1018.49 1019.26 1020.11 1020.96 1021.73 1022.36 1022.83 1023.12 1023.28 1023.34 1023.33 1023.30 1023.25 1023.19 1023.10 1022.96 1022.75 1022.44 1022.05 1021.56 1021.02 1020.42 1019.81 1019.19 1018.58
1014.83 1014.96 1015.11 1015.34 1015.68 1016.13 1016.64 1017.16 1017.60 1017.90 1018.00 1017.91 1017.64 1017.29 1016.94 1016.70 1016.66 1016.88 1017.36 1018.10 1019.00 1019.99 1020.96 1021.82 1022.51 1023.00 1023.30 1023.45 1023.47 1023.44 1023.38 1023.32 1023.25 1023.17 1023.05 1022.86 1022.58 1022.21 1021.74 1021.20 1020.60 1019.96 1019.31 1018.65
1014.79 1015.03 1015.28 1015.61 1016.02 1016.51 1017.01 1017.46 1017.79 1017.94 1017.88 1017.61 1017.20 1016.73 1016.31 1016.06 1016.06 1016.35 1016.96 1017.81 1018.85 1019.95 1021.01 1021.93 1022.66 1023.17 1023.47 1023.59 1023.60 1023.54 1023.47 1023.39 1023.33 1023.26 1023.15 1022.98 1022.71 1022.35 1021.89 1021.35 1020.73 1020.08 1019.39 1018.69
1014.60 1014.95 1015.33 1015.77 1016.27 1016.79 1017.29 1017.69 1017.91 1017.93 1017.71 1017.31 1016.78 1016.23 1015.78 1015.54 1015.60 1015.99 1016.69 1017.66 1018.79 1019.98 1021.10 1022.06 1022.80 1023.30 1023.59 1023.70 1023.69 1023.62 1023.54 1023.47 1023.41 1023.35 1023.25 1023.08 1022.82 1022.46 1021.99 1021.43 1020.79 1020.12 1019.41 1018.68
1014.27 1014.75 1015.27 1015.82 1016.40 1016.97 1017.45 1017.79 1017.92 1017.82 1017.49 1016.98 1016.38 1015.79 1015.35 1015.16 1015.29 1015.77 1016.57 1017.62 1018.82 1020.05 1021.19 1022.16 1022.89 1023.38 1023.65 1023.76 1023.75 1023.69 1023.61 1023.55 1023.50 1023.44 1023.34 1023.16 1022.88 1022.50 1022.00 1021.42 1020.76 1020.06 1019.34 1018.61
1013.89 1014.50 1015.14 1015.80 1016.45 1017.03 1017.50 1017.78 1017.82 1017.61 1017.19 1016.61 1015.97 1015.39 1014.99 1014.87 1015.09 1015.66 1016.54 1017.65 1018.89 1020.13 1021.27 1022.21 1022.93 1023.40 1023.67 1023.77 1023.78 1023.73 1023.68 1023.64 1023.59 1023.53 1023.41 1023.21 1022.90 1022.47 1021.94 1021.32 1020.64 1019.93 1019.21 1018.49
1013.57 1014.29 1015.03 1015.76 1016.44 1017.03 1017.44 1017.64 1017.59 1017.29 1016.79 1016.17 1015.53 1014.99 1014.66 1014.63 1014.94 1015.60 1016.54 1017.70 1018.95 1020.18 1021.30 1022.21 1022.90 1023.37 1023.63 1023.76 1023.79 1023.78 1023.76 1023.73 1023.70 1023.62 1023.47 1023.23 1022.87 1022.40 1021.82 1021.16 1020.46 1019.74 1019.03 1018.35
1013.38 1014.18 1014.98 1015.75 1016.43 1016.96 1017.29 1017.39 1017.22 1016.83 1016.27 1015.63 1015.00 1014.52 1014.28 1014.36 1014.77 1015.52 1016.53 1017.71 1018.97 1020.19 1021.27 1022.16 1022.84 1023.30 1023.59 1023.74 1023.81 1023.85 1023.86 1023.86 1023.82 1023.72 1023.54 1023.25 1022.83 1022.30 1021.67 1020.98 1020.27 1019.55 1018.87 1018.22
1013.36 1014.20 1015.03 1015.78 1016.40 1016.83 1017.05 1017.00 1016.72 1016.23 1015.60 1014.95 1014.36 1013.96 1013.82 1014.01 1014.54 1015.38 1016.45 1017.67 1018.93 1020.14 1021.21 1022.08 1022.76 1023.23 1023.55 1023.75 1023.88 1023.95 1024.00 1024.01 1023.97 1023.85 1023.62 1023.27 1022.80 1022.22 1021.55 1020.84 1020.11 1019.41 1018.76 1018.16
1013.48 1014.32 1015.11 1015.80 1016.31 1016.61 1016.67 1016.47 1016.05 1015.46 1014.78 1014.13 1013.60 1013.29 1013.27 1013.59 1014.24 1015.17 1016.32 1017.58 1018.86 1020.06 1021.13 1022.01 1022.69 1023.20 1023.56 1023.81 1023.99 1024.11 1024.18 1024.20 1024.14 1023.98 1023.71 1023.31 1022.79 1022.17 1021.48 1020.76 1020.05 1019.37 1018.76 1018.21
1013.65 1014.44 1015.16 1015.73 1016.10 1016.23 1016.12 1015.76 1015.21 1014.53 1013.83 1013.19 1012.74 1012.54 1012.66 1013.12 1013.89 1014.93 1016.16 1017.47 1018.78 1020.00 1021.07 1021.97 1022.68 1023.23 1023.63 1023.93 1024.14 1024.29 1024.38 1024.39 1024.31 1024.12 1023.80 1023.36 1022.81 1022.17 1021.47 1020.76 1020.08 1019.45 1018.88 1018.37
1013.72 1014.43 1015.03 1015.46 1015.67 1015.63 1015.35 1014.86 1014.20 1013.47 1012.77 1012.20 1011.85 1011.79 1012.06 1012.67 1013.58 1014.73 1016.04 1017.41 1018.75 1020.00 1021.10 1022.01 1022.75 1023.33 1023.77 1024.10 1024.34 1024.50 1024.58 1024.57 1024.45 1024.22 1023.86 1023.39 1022.83 1022.19 1021.52 1020.85 1020.21 1019.62 1019.10 1018.63
1013.59 1014.17 1014.63 1014.91 1014.96 1014.77 1014.36 1013.77 1013.07 1012.34 1011.70 1011.23 1011.02 1011.12 1011.56 1012.33 1013.39 1014.65 1016.04 1017.46 1018.84 1020.11 1021.22 1022.15 1022.91 1023.51 1023.96 1024.30 1024.55 1024.69 1024.74 1024.69 1024.53 1024.26 1023.87 1023.39 1022.83 1022.21 1021.58 1020.97 1020.39 1019.87 1019.39 1018.96
1013.16 1013.60 1013.91 1014.04 1013.96 1013.67 1013.18 1012.56 1011.87 1011.22 1010.70 1010.39 1010.36 1010.65 1011.27 1012.20 1013.38 1014.75 1016.20 1017.67 1019.07 1020.35 1021.46 1022.40 1023.15 1023.75 1024.20 1024.53 1024.75 1024.86 1024.86 1024.76 1024.55 1024.23 1023.82 1023.33 1022.79 1022.21 1021.64 1021.10 1020.59 1020.13 1019.71 1019.31
1012.44 1012.74 1012.91 1012.92 1012.74 1012.39 1011.89 1011.31 1010.72 1010.21 1009.86 1009.75 1009.93 1010.43 1011.23 1012.32 1013.62 1015.06 1016.56 1018.05 1019.45 1020.72 1021.82 1022.73 1023.47 1024.04 1024.47 1024.76 1024.94 1024.99 1024.94 1024.77 1024.51 1024.15 1023.72 1023.23 1022.71 1022.19 1021.68 1021.21 1020.78 1020.38 1020.00 1019.63
1011.53 1011.68 1011.73 1011.64 1011.42 1011.07 1010.62 1010.15 1009.71 1009.40 1009.27 1009.39 1009.80 1010.50 1011.47 1012.69 1014.09 1015.58 1017.10 1018.58 1019.95 1021.19 1022.25 1023.13 1023.83 1024.37 1024.75 1025.00 1025.12 1025.11 1024.99 1024.77 1024.45 1024.05 1023.60 1023.11 1022.62 1022.15 1021.70 1021.30 1020.93 1020.59 1020.26 1019.92
1010.55 1010.58 1010.53 1010.39 1010.16 1009.85 1009.51 1009.19 1008.95 1008.86 1008.98 1009.34 1009.96 1010.85 1011.98 1013.30 1014.75 1016.26 1017.76 1019.20 1020.53 1021.71 1022.72 1023.55 1024.21 1024.71 1025.05 1025.25 1025.31 1025.25 1025.07 1024.78 1024.41 1023.98 1023.51 1023.03 1022.56 1022.12 1021.73 1021.39 1021.08 1020.79 1020.49 1020.18
1009.69 1009.63 1009.51 1009.35 1009.14 1008.90 1008.69 1008.54 1008.51 1008.66 1009.00 1009.58 1010.40 1011.44 1012.68 1014.06 1015.53 1017.02 1018.48 1019.86 1021.12 1022.24 1023.19 1023.98 1024.60 1025.06 1025.36 1025.52 1025.54 1025.43 1025.19 1024.87 1024.46 1024.00 1023.51 1023.03 1022.57 1022.17 1021.81 1021.50 1021.23 1020.98 1020.71 1020.42
1009.12 1008.98 1008.82 1008.65 1008.48 1008.34 1008.26 1008.28 1008.45 1008.79 1009.34 1010.10 1011.07 1012.22 1013.51 1014.91 1016.36 1017.81 1019.20 1020.51 1021.69 1022.75 1023.64 1024.38 1024.97 1025.40 1025.68 1025.81 1025.80 1025.66 1025.40 1025.04 1024.60 1024.12 1023.62 1023.14 1022.69 1022.30 1021.96 1021.68 1021.43 1021.20 1020.96 1020.68
1008.93 1008.75 1008.58 1008.42 1008.29 1008.23 1008.26 1008.43 1008.75 1009.26 1009.95 1010.84 1011.90 1013.11 1014.42 1015.80 1017.20 1018.57 1019.88 1021.11 1022.22 1023.20 1024.05 1024.76 1025.32 1025.74 1026.01 1026.13 1026.11 1025.95 1025.67 1025.29 1024.84 1024.35 1023.84 1023.36 1022.92 1022.53 1022.21 1021.93 1021.70 1021.48 1021.24 1020.97
Thickness
5539 5538 5546 5559 5564 5570 5571 5573 5577 5587 5595 5594 5595 5604 5615 5621 5622 5624 5627 5630 5635 5640 5642 5642 5642 5640 5638 5636 5634 5633 5631 5629 5628 5626 5624 5622 5620 5620 5620 5621 5621 5620 5620 5619
5522 5529 5548 5553 5555 5559 5561 5562 5567 5576 5585 5586 5586 5594 5607 5614 5619 5624 5627 5629 5631 5633 5633 5634 5634 5634 5633 5631 5630 5628 5626 5624 5623 5622 5619 5617 5615 5613 5613 5613 5613 5613 5612 5612
5516 5533 5542 5543 5544 5545 5551 5553 5559 5564 5571 5576 5576 5582 5596 5609 5614 5620 5625 5629 5630 5632 5631 5630 5628 5628 5627 5626 5625 5624 5621 5619 5617 5615 5612 5609 5606 5605 5604 5604 5604 5605 5605 5604
5507 5523 5531 5532 5537 5539 5541 5554 5555 5555 5551 5549 5561 5556 5585 5598 5605 5613 5618 5620 5624 5628 5628 5627 5625 5622 5622 5621 5619 5618 5615 5612 5610 5608 5606 5603 5601 5599 5599 5598 5597 5597 5597 5596
5500 5514 5520 5524 5533 5536 5538 5547 5546 5545 5537 5534 5543 5544 5572 5587 5596 5609 5614 5617 5620 5622 5624 5624 5622 5620 5617 5614 5612 5610 5608 5605 5603 5602 5600 5597 5594 5593 5591 5590 5589 5589 5589 5588
5493 5505 5512 5520 5528 5530 5531 5530 5525 5519 5516 5517 5534 5536 5558 5577 5597 5606 5611 5612 5614 5616 5617 5617 5615 5611 5608 5606 5604 5603 5601 5598 5596 5594 5592 5590 5588 5585 5583 5582 5581 5581 5580 5579
5477 5490 5502 5511 5512 5516 5518 5512 5501 5498 5494 5508 5531 5534 5556 5583 5593 5600 5604 5605 5605 5607 5607 5607 5605 5603 5600 5598 5596 5595 5594 5591 5589 5587 5585 5583 5581 5579 5577 5576 5574 5573 5571 5570
5459 5469 5487 5498 5504 5505 5507 5509 5498 5495 5499 5509 5521 5525 5554 5575 5585 5591 5594 5596 5597 5597 5598 5599 5599 5597 5594 5591 5589 5587 5586 5584 5581 5579 5577 5575 5573 5571 5570 5568 5567 5565 5564 5563
5449 5460 5480 5488 5497 5500 5497 5498 5505 5497 5494 5500 5509 5525 5548 5566 5572 5577 5581 5584 5585 5587 5589 5589 5589 5588 5586 5583 5581 5580 5578 5575 5573 5571 5568 5565 5564 5562 5561 5560 5558 5556 5555 5554
5442 5446 5463 5474 5486 5488 5493 5493 5488 5489 5490 5502 5513 5522 5536 5554 5561 5565 5569 5571 5573 5575 5577 5578 5578 5578 5576 5575 5572 5570 5568 5566 5564 5561 5559 5557 5554 5553 5552 5551 5549 5548 5546 5545
5434 5433 5445 5457 5466 5473 5478 5482 5483 5481 5485 5494 5503 5520 5541 5546 5552 5554 5557 5560 5562 5563 5565 5566 5567 5566 5565 5563 5561 5559 5557 5555 5552 5551 5549 5547 5545 5543 5542 5541 5540 5539 5537 5535
5425 5420 5424 5438 5451 5459 5468 5475 5474 5475 5476 5480 5490 5510 5534 5534 5539 5542 5543 5547 5549 5551 5552 5553 5554 5553 5552 5551 5550 5548 5546 5544 5543 5542 5540 5537 5535 5533 5532 5531 5530 5529 5527 5525
5417 5410 5413 5425 5435 5442 5448 5456 5463 5465 5466 5467 5481 5505 5520 5520 5524 5529 5531 5533 5535 5537 5539 5539 5540 5541 5541 5540 5539 5537 5536 5534 5533 5531 5529 5527 5525 5523 5522 5521 5520 5519 5517 5515
5413 5403 5412 5422 5431 5432 5437 5445 5454 5459 5460 5465 5478 5493 5507 5510 5512 5514 5516 5518 5520 5524 5526 5527 5527 5528 5529 5529 5528 5526 5524 5524 5522 5521 5519 5517 5515 5513 5512 5510 5509 5508 5507 5504
5399 5396 5404 5416 5426 5428 5436 5442 5447 5453 5459 5465 5478 5483 5495 5497 5499 5500 5502 5506 5510 5512 5514 5515 5516 5515 5516 5517 5517 5516 5514 5513 5512 5510 5508 5507 5505 5503 5501 5499 5498 5497 5495 5493
5382 5387 5397 5408 5421 5425 5430 5437 5441 5447 5455 5462 5469 5475 5482 5484 5485 5486 5489 5494 5497 5499 5502 5504 5505 5505 5505 5506 5506 5505 5504 5502 5501 5499 5497 5496 5494 5492 5490 5489 5487 5485 5483 5481
5369 5375 5386 5395 5409 5418 5420 5430 5434 5439 5446 5454 5461 5469 5471 5472 5476 5477 5479 5483 5485 5487 5490 5492 5493 5494 5494 5495 5495 5494 5493 5491 5490 5488 5486 5485 5483 5481 5479 5478 5475 5473 5471 5469
5364 5367 5371 5382 5392 5402 5422 5427 5432 5434 5438 5446 5453 5458 5462 5464 5465 5467 5469 5471 5473 5476 5478 5481 5482 5482 5483 5483 5483 5482 5481 5479 5478 5477 5475 5474 5472 5470 5468 5466 5464 5462 5460 5457
5366 5365 5365 5370 5380 5397 5413 5416 5419 5423 5426 5433 5440 5445 5447 5451 5453 5454 5459 5462 5464 5466 5468 5469 5471 5471 5471 5471 5472 5471 5469 5467 5466 5464 5463 5462 5461 5459 5457 5455 5452 5451 5449 5447
5359 5359 5360 5365 5377 5389 5403 5409 5414 5418 5417 5426 5431 5434 5435 5441 5440 5444 5450 5451 5453 5455 5457 5458 5459 5460 5460 5460 5460 5459 5457 5455 5454 5453 5452 5451 5450 5448 5446 5444 5442 5441 5439 5437
5351 5354 5357 5361 5368 5381 5391 5399 5411 5407 5411 5418 5422 5426 5428 5430 5433 5434 5437 5439 5441 5443 5444 5446 5447 5447 5447 5448 5448 5447 5445 5443 5443 5442 5440 5439 5438 5437 5436 5434 5432 5431 5429 5427
5342 5343 5349 5356 5364 5372 5378 5387 5391 5394 5401 5407 5411 5415 5417 5418 5420 5422 5424 5426 5428 5429 5431 5433 5433 5433 5433 5435 5435 5434 5432 5431 5431 5430 5429 5428 5427 5427 5426 5424 5422 5421 5419 5417
5337 5341 5345 5350 5356 5362 5365 5372 5378 5384 5389 5395 5398 5402 5406 5407 5407 5409 5410 5412 5415 5417 5418 5420 5420 5420 5420 5421 5423 5422 5420 5420 5420 5419 5417 5416 5416 5415 5415 5414 5412 5411 5409 5407
5332 5336 5339 5342 5350 5354 5357 5363 5369 5375 5379 5383 5388 5391 5395 5396 5396 5397 5399 5400 5402 5404 5406 5407 5408 5408 5407 5407 5409 5409 5409 5410 5409 5407 5406 5405 5405 5404 5404 5403 5402 5401 5399 5397
5322 5326 5330 5335 5341 5347 5350 5352 5357 5362 5367 5372 5376 5379 5383 5385 5386 5386 5387 5388 5390 5392 5393 5395 5395 5396 5395 5395 5396 5397 5398 5399 5398 5396 5395 5394 5394 5393 5392 5392 5391 5390 5389 5388
5312 5316 5321 5328 5333 5335 5339 5342 5347 5352 5356 5359 5364 5366 5369 5373 5374 5375 5375 5376 5378 5379 5380 5381 5382 5383 5383 5384 5384 5385 5386 5387 5386 5385 5384 5383 5383 5382 5381 5381 5380 5380 5380 5379